AAL1549 KCMH-KBOS

Flight info

Callsign AAL1549
Flight time 1h 26m
Altitude 39000
Route OWEBO HLG SLT J190 RKA PONCT JFUND2
Aircraft A20N/M-SDE2E3FGHIRWXY/LB1

Departure

Time 2026-05-07 22:41
Airport John Glenn Columbus International Airport (KCMH)

Arrival

Time 2026-05-08 00:07
Airport Boston Logan International Airport (KBOS)
Time Latitude Longitude Altitude Speed Heading
2026-05-07 22:21 39.99611 -82.87428 823 ft 0 kts
2026-05-07 22:35 39.99606 -82.87429 824 ft 2 kts
2026-05-07 22:35 39.99591 -82.87432 820 ft 2 kts 14°
2026-05-07 22:35 39.99576 -82.87440 824 ft 3 kts 44°
2026-05-07 22:35 39.99568 -82.87454 825 ft 0 kts 91°
2026-05-07 22:38 39.99568 -82.87453 825 ft 1 kts 91°
2026-05-07 22:38 39.99564 -82.87419 825 ft 8 kts 101°
2026-05-07 22:38 39.99530 -82.87307 824 ft 18 kts 142°
2026-05-07 22:39 39.99381 -82.87308 824 ft 25 kts 188°
2026-05-07 22:39 39.99266 -82.87324 822 ft 0 kts 185°
2026-05-07 22:39 39.99261 -82.87325 822 ft 0 kts 185°
2026-05-07 22:40 39.99191 -82.87345 822 ft 19 kts 213°
2026-05-07 22:40 39.99175 -82.87561 820 ft 40 kts 283°
2026-05-07 22:40 39.99216 -82.88217 822 ft 103 kts 273°
2026-05-07 22:40 39.99280 -82.89381 823 ft 152 kts 276°
2026-05-07 22:41 39.99360 -82.90748 1369 ft 151 kts 277°
2026-05-07 22:41 39.99462 -82.92128 2042 ft 154 kts 278°
2026-05-07 22:41 39.99558 -82.93546 2569 ft 165 kts 277°
2026-05-07 22:41 39.99677 -82.95120 2944 ft 183 kts 288°
2026-05-07 22:42 40.00425 -82.96524 3348 ft 202 kts 324°
2026-05-07 22:42 40.01803 -82.97121 3810 ft 224 kts 358°
2026-05-07 22:42 40.03388 -82.96585 4242 ft 252 kts 28°
2026-05-07 22:42 40.04659 -82.94924 4921 ft 269 kts 59°
2026-05-07 22:43 40.05194 -82.92556 5770 ft 279 kts 86°
2026-05-07 22:43 40.04859 -82.90037 6594 ft 287 kts 111°
2026-05-07 22:43 40.04133 -82.87572 7343 ft 296 kts 110°
2026-05-07 22:43 40.03606 -82.84945 8124 ft 304 kts 101°
2026-05-07 22:44 40.03377 -82.82160 8878 ft 313 kts 93°
2026-05-07 22:44 40.03368 -82.79288 9641 ft 321 kts 89°
2026-05-07 22:44 40.03471 -82.76335 10289 ft 332 kts 87°
2026-05-07 22:44 40.03618 -82.73253 10543 ft 356 kts 87°
2026-05-07 22:45 40.03783 -82.69916 10814 ft 378 kts 87°
2026-05-07 22:45 40.03947 -82.66453 11419 ft 386 kts 87°
2026-05-07 22:45 40.04108 -82.62921 12100 ft 393 kts 87°
2026-05-07 22:45 40.04266 -82.59329 12716 ft 401 kts 88°
2026-05-07 22:46 40.04424 -82.55666 12946 ft 405 kts 88°
2026-05-07 22:46 40.04581 -82.52004 13003 ft 405 kts 88°
2026-05-07 22:46 40.04737 -82.48319 13081 ft 408 kts 88°
2026-05-07 22:46 40.04893 -82.44594 13659 ft 412 kts 88°
2026-05-07 22:47 40.05049 -82.40846 14321 ft 417 kts 88°
2026-05-07 22:47 40.05206 -82.37030 14898 ft 424 kts 88°
2026-05-07 22:47 40.05365 -82.33155 15496 ft 429 kts 87°
2026-05-07 22:47 40.05520 -82.29326 16029 ft 437 kts 88°
2026-05-07 22:48 40.05682 -82.25307 16615 ft 442 kts 88°
2026-05-07 22:48 40.05843 -82.21271 17191 ft 448 kts 88°
2026-05-07 22:48 40.06004 -82.17179 17750 ft 454 kts 87°
2026-05-07 22:48 40.06167 -82.13036 18314 ft 459 kts 87°
2026-05-07 22:49 40.06331 -82.08842 18772 ft 465 kts 88°
2026-05-07 22:49 40.06495 -82.04592 19254 ft 471 kts 88°
2026-05-07 22:49 40.06660 -82.00296 19718 ft 477 kts 88°
2026-05-07 22:49 40.06826 -81.95907 19907 ft 491 kts 88°
2026-05-07 22:50 40.06994 -81.91393 20066 ft 505 kts 88°
2026-05-07 22:50 40.07162 -81.86820 20215 ft 518 kts 88°
2026-05-07 22:50 40.07335 -81.82064 20362 ft 530 kts 88°
2026-05-07 22:50 40.07511 -81.77198 20507 ft 542 kts 89°
2026-05-07 22:51 40.07791 -81.72246 20695 ft 552 kts 84°
2026-05-07 22:51 40.08364 -81.67262 21045 ft 557 kts 79°
2026-05-07 22:51 40.09172 -81.62284 21411 ft 562 kts 77°
2026-05-07 22:51 40.10003 -81.57274 21752 ft 567 kts 77°
2026-05-07 22:52 40.10832 -81.52221 22079 ft 572 kts 78°
2026-05-07 22:52 40.11665 -81.47118 22442 ft 576 kts 78°
2026-05-07 22:52 40.12500 -81.41981 22797 ft 580 kts 78°
2026-05-07 22:52 40.13343 -81.36787 23127 ft 585 kts 78°
2026-05-07 22:53 40.14176 -81.31640 23466 ft 589 kts 78°
2026-05-07 22:53 40.15025 -81.26375 23760 ft 592 kts 78°
2026-05-07 22:53 40.15876 -81.21086 24072 ft 595 kts 78°
2026-05-07 22:53 40.16728 -81.15780 24351 ft 598 kts 78°
2026-05-07 22:54 40.17580 -81.10453 24657 ft 601 kts 78°
2026-05-07 22:54 40.18438 -81.05073 24927 ft 603 kts 78°
2026-05-07 22:54 40.19293 -80.99692 25159 ft 606 kts 78°
2026-05-07 22:54 40.20152 -80.94269 25394 ft 607 kts 78°
2026-05-07 22:55 40.20999 -80.88904 26174 ft 595 kts 78°
2026-05-07 22:55 40.21819 -80.83687 27269 ft 579 kts 78°
2026-05-07 22:55 40.22617 -80.78588 28276 ft 567 kts 77°
2026-05-07 22:55 40.23401 -80.73572 28608 ft 570 kts 77°
2026-05-07 22:56 40.24203 -80.68471 28888 ft 573 kts 76°
2026-05-07 22:56 40.25207 -80.63416 29194 ft 574 kts 70°
2026-05-07 22:56 40.26519 -80.58475 29474 ft 574 kts 64°
2026-05-07 22:56 40.28123 -80.53678 29746 ft 574 kts 59°
2026-05-07 22:57 40.29998 -80.49071 30062 ft 572 kts 53°
2026-05-07 22:57 40.32117 -80.44657 30312 ft 571 kts 49°
2026-05-07 22:57 40.34279 -80.40360 30541 ft 573 kts 49°
2026-05-07 22:57 40.36473 -80.35976 30765 ft 577 kts 49°
2026-05-07 22:58 40.38673 -80.31566 31053 ft 578 kts 49°
2026-05-07 22:58 40.40870 -80.27150 31380 ft 579 kts 49°
2026-05-07 22:58 40.43069 -80.22724 31697 ft 579 kts 49°
2026-05-07 22:58 40.45272 -80.18286 32015 ft 579 kts 49°
2026-05-07 22:59 40.47470 -80.13852 32331 ft 579 kts 49°
2026-05-07 22:59 40.49668 -80.09417 33305 ft 577 kts 50°
2026-05-07 22:59 40.50786 -80.07159 33654 ft 570 kts 50°
2026-05-07 23:03 40.52236 -80.04216 34275 ft 558 kts 50°
2026-05-07 23:03 40.54326 -79.99971 34828 ft 551 kts 50°
2026-05-07 23:04 40.56412 -79.95747 35082 ft 550 kts 50°
2026-05-07 23:04 40.58493 -79.91531 35298 ft 550 kts 50°
2026-05-07 23:04 40.59873 -79.88732 35433 ft 550 kts 50°
2026-05-07 23:04 40.61953 -79.84506 35659 ft 549 kts 51°
2026-05-07 23:05 40.64023 -79.80290 35874 ft 549 kts 51°
2026-05-07 23:05 40.66095 -79.76064 36076 ft 548 kts 51°
2026-05-07 23:05 40.68160 -79.71847 36269 ft 548 kts 51°
2026-05-07 23:05 40.70227 -79.67620 36438 ft 548 kts 51°
2026-05-07 23:06 40.72288 -79.63398 36613 ft 548 kts 51°
2026-05-07 23:06 40.74352 -79.59164 36793 ft 548 kts 51°
2026-05-07 23:06 40.76414 -79.54929 36958 ft 548 kts 51°
2026-05-07 23:06 40.78471 -79.50698 37111 ft 548 kts 51°
2026-05-07 23:07 40.80528 -79.46463 37257 ft 548 kts 52°
2026-05-07 23:07 40.82553 -79.42285 37424 ft 548 kts 52°
2026-05-07 23:07 40.84609 -79.38038 37585 ft 547 kts 52°
2026-05-07 23:07 40.86654 -79.33808 37737 ft 547 kts 52°
2026-05-07 23:08 40.88700 -79.29570 37875 ft 547 kts 52°
2026-05-07 23:08 40.90743 -79.25333 37981 ft 547 kts 52°
2026-05-07 23:08 40.92788 -79.21086 38125 ft 547 kts 52°
2026-05-07 23:08 40.94829 -79.16840 38269 ft 546 kts 52°
2026-05-07 23:09 40.96869 -79.12592 38391 ft 546 kts 52°
2026-05-07 23:09 40.98901 -79.08355 38494 ft 546 kts 52°
2026-05-07 23:09 41.00936 -79.04105 38614 ft 546 kts 52°
2026-05-07 23:09 41.02964 -78.99863 38722 ft 545 kts 52°
2026-05-07 23:10 41.04990 -78.95620 38842 ft 544 kts 52°
2026-05-07 23:10 41.09030 -78.87141 38889 ft 543 kts 53°
2026-05-07 23:11 41.13025 -78.78734 38890 ft 541 kts 53°
2026-05-07 23:11 41.17034 -78.70275 38893 ft 541 kts 53°
2026-05-07 23:11 41.19020 -78.66051 38540 ft 538 kts 50°
2026-05-07 23:12 41.20990 -78.61853 38862 ft 532 kts 50°
2026-05-07 23:12 41.24930 -78.53497 38897 ft 535 kts 50°
2026-05-07 23:13 41.28892 -78.45081 38901 ft 539 kts 50°
2026-05-07 23:13 41.32851 -78.36635 38575 ft 537 kts 50°
2026-05-07 23:13 41.34833 -78.32397 37911 ft 540 kts 50°
2026-05-07 23:14 41.36801 -78.28191 37207 ft 543 kts 50°
2026-05-07 23:14 41.38807 -78.23896 36988 ft 549 kts 50°
2026-05-07 23:14 41.40834 -78.19550 36908 ft 554 kts 51°
2026-05-07 23:15 41.44903 -78.10795 36909 ft 556 kts 51°
2026-05-07 23:15 41.48964 -78.02026 36904 ft 555 kts 51°
2026-05-07 23:16 41.52740 -77.92973 36904 ft 561 kts 59°
2026-05-07 23:16 41.56118 -77.83575 36905 ft 561 kts 58°
2026-05-07 23:17 41.59526 -77.74197 36898 ft 559 kts 58°
2026-05-07 23:17 41.62911 -77.64812 36901 ft 560 kts 58°
2026-05-07 23:18 41.66254 -77.55491 36898 ft 559 kts 59°
2026-05-07 23:18 41.69605 -77.46113 36884 ft 559 kts 59°
2026-05-07 23:19 41.72942 -77.36743 36892 ft 557 kts 59°
2026-05-07 23:19 41.76276 -77.27351 36891 ft 558 kts 59°
2026-05-07 23:20 41.79599 -77.17958 36887 ft 557 kts 59°
2026-05-07 23:20 41.82911 -77.08568 36889 ft 557 kts 59°
2026-05-07 23:21 41.86214 -76.99170 36890 ft 556 kts 60°
2026-05-07 23:21 41.89506 -76.89770 36882 ft 556 kts 60°
2026-05-07 23:22 41.92772 -76.80413 36883 ft 555 kts 60°
2026-05-07 23:22 41.96038 -76.71024 36882 ft 555 kts 60°
2026-05-07 23:23 41.99304 -76.61606 36881 ft 555 kts 60°
2026-05-07 23:23 42.02556 -76.52198 36883 ft 555 kts 60°
2026-05-07 23:24 42.05795 -76.42792 36888 ft 554 kts 60°
2026-05-07 23:24 42.09027 -76.33373 36884 ft 554 kts 61°
2026-05-07 23:25 42.12249 -76.23956 36878 ft 553 kts 61°
2026-05-07 23:25 42.15457 -76.14545 36874 ft 553 kts 61°
2026-05-07 23:26 42.18703 -76.05176 37091 ft 549 kts 62°
2026-05-07 23:26 42.20325 -76.00559 36870 ft 539 kts 63°
2026-05-07 23:26 42.21912 -75.96017 36872 ft 533 kts 63°
2026-05-07 23:27 42.26665 -75.82342 36873 ft 542 kts 63°
2026-05-07 23:27 42.29853 -75.73106 36880 ft 541 kts 63°
2026-05-07 23:28 42.33029 -75.63877 36895 ft 542 kts 63°
2026-05-07 23:28 42.36198 -75.54635 36896 ft 542 kts 63°
2026-05-07 23:29 42.39361 -75.45378 36893 ft 541 kts 63°
2026-05-07 23:29 42.42488 -75.36198 36897 ft 541 kts 64°
2026-05-07 23:30 42.45594 -75.26904 36892 ft 541 kts 67°
2026-05-07 23:30 42.47997 -75.17238 36896 ft 541 kts 76°
2026-05-07 23:31 42.49979 -75.07407 36900 ft 542 kts 75°
2026-05-07 23:31 42.51980 -74.97565 36901 ft 541 kts 75°
2026-05-07 23:32 42.53960 -74.87725 36900 ft 542 kts 75°
2026-05-07 23:32 42.55929 -74.77865 36899 ft 542 kts 75°
2026-05-07 23:33 42.57891 -74.67992 36895 ft 541 kts 75°
2026-05-07 23:33 42.59829 -74.58191 36895 ft 542 kts 76°
2026-05-07 23:34 42.61667 -74.48853 36898 ft 541 kts 76°
2026-05-07 23:34 42.63603 -74.38969 36892 ft 542 kts 76°
2026-05-07 23:35 42.65531 -74.29074 36887 ft 542 kts 76°
2026-05-07 23:35 42.67450 -74.19175 36884 ft 542 kts 76°
2026-05-07 23:36 42.69362 -74.09266 36823 ft 540 kts 76°
2026-05-07 23:36 42.70308 -74.04347 36481 ft 537 kts 76°
2026-05-07 23:36 42.71252 -73.99426 35899 ft 537 kts 76°
2026-05-07 23:37 42.72181 -73.94563 35250 ft 538 kts 76°
2026-05-07 23:37 42.73122 -73.89629 34579 ft 539 kts 76°
2026-05-07 23:37 42.74034 -73.84709 33928 ft 539 kts 80°
2026-05-07 23:37 42.74583 -73.79678 33153 ft 537 kts 89°
2026-05-07 23:38 42.74656 -73.74625 32367 ft 534 kts 95°
2026-05-07 23:38 42.74608 -73.69551 31593 ft 535 kts 95°
2026-05-07 23:38 42.74573 -73.64488 30848 ft 536 kts 95°
2026-05-07 23:38 42.74538 -73.59412 30133 ft 536 kts 95°
2026-05-07 23:39 42.74503 -73.54356 29516 ft 532 kts 95°
2026-05-07 23:39 42.74464 -73.49352 28945 ft 526 kts 95°
2026-05-07 23:39 42.74423 -73.44394 28368 ft 520 kts 95°
2026-05-07 23:39 42.74379 -73.39499 27800 ft 515 kts 95°
2026-05-07 23:40 42.74333 -73.34650 27218 ft 511 kts 95°
2026-05-07 23:40 42.74284 -73.29839 26645 ft 506 kts 95°
2026-05-07 23:40 42.74235 -73.25140 26181 ft 501 kts 95°
2026-05-07 23:40 42.74183 -73.20356 25681 ft 496 kts 95°
2026-05-07 23:41 42.74131 -73.15671 25148 ft 493 kts 95°
2026-05-07 23:41 42.73999 -73.11049 24625 ft 485 kts 101°
2026-05-07 23:41 42.73517 -73.06545 24131 ft 477 kts 105°
2026-05-07 23:41 42.73003 -73.02128 23905 ft 471 kts 105°
2026-05-07 23:42 42.72491 -72.97703 23856 ft 476 kts 105°
2026-05-07 23:42 42.71975 -72.93258 23855 ft 477 kts 105°
2026-05-07 23:42 42.71466 -72.88876 23851 ft 476 kts 105°
2026-05-07 23:42 42.70948 -72.84424 23849 ft 475 kts 105°
2026-05-07 23:43 42.70429 -72.79978 23851 ft 475 kts 105°
2026-05-07 23:43 42.69907 -72.75543 23852 ft 476 kts 105°
2026-05-07 23:43 42.69383 -72.71097 23852 ft 475 kts 105°
2026-05-07 23:43 42.68859 -72.66663 23845 ft 475 kts 105°
2026-05-07 23:44 42.68334 -72.62243 23839 ft 475 kts 105°
2026-05-07 23:44 42.67803 -72.57818 23676 ft 471 kts 105°
2026-05-07 23:44 42.67270 -72.53431 23249 ft 469 kts 105°
2026-05-07 23:44 42.66740 -72.49093 22735 ft 464 kts 105°
2026-05-07 23:45 42.66213 -72.44783 22209 ft 460 kts 105°
2026-05-07 23:45 42.65691 -72.40527 21689 ft 455 kts 105°
2026-05-07 23:45 42.65179 -72.36363 21243 ft 449 kts 105°
2026-05-07 23:45 42.64675 -72.32243 21014 ft 437 kts 105°
2026-05-07 23:46 42.64187 -72.28205 20570 ft 432 kts 105°
2026-05-07 23:46 42.63720 -72.24191 20082 ft 430 kts 105°
2026-05-07 23:46 42.63261 -72.20194 19612 ft 426 kts 105°
2026-05-07 23:46 42.62804 -72.16239 19161 ft 422 kts 105°
2026-05-07 23:47 42.62348 -72.12318 18710 ft 419 kts 105°
2026-05-07 23:47 42.61894 -72.08432 18234 ft 414 kts 105°
2026-05-07 23:47 42.61442 -72.04596 17484 ft 409 kts 104°
2026-05-07 23:47 42.60985 -72.00806 16756 ft 404 kts 104°
2026-05-07 23:48 42.60518 -71.97058 15947 ft 402 kts 104°
2026-05-07 23:48 42.60050 -71.93346 15324 ft 396 kts 104°
2026-05-07 23:48 42.59590 -71.89695 14695 ft 390 kts 103°
2026-05-07 23:48 42.59135 -71.86083 14209 ft 386 kts 103°
2026-05-07 23:49 42.58698 -71.82613 13823 ft 384 kts 103°
2026-05-07 23:49 42.58377 -71.80152 13517 ft 382 kts 104°
2026-05-07 23:49 42.57840 -71.76647 13071 ft 378 kts 105°
2026-05-07 23:49 42.57087 -71.72065 12493 ft 373 kts 105°
2026-05-07 23:50 42.56526 -71.68644 12061 ft 369 kts 104°
2026-05-07 23:50 42.55979 -71.65269 11628 ft 366 kts 104°
2026-05-07 23:50 42.55622 -71.63048 11371 ft 362 kts 104°
2026-05-07 23:50 42.55086 -71.59690 11081 ft 356 kts 104°
2026-05-07 23:51 42.54448 -71.56498 10989 ft 352 kts 107°
2026-05-07 23:51 42.53790 -71.53332 10817 ft 346 kts 107°
2026-05-07 23:51 42.53141 -71.50197 10440 ft 343 kts 107°
2026-05-07 23:51 42.52497 -71.47092 10126 ft 338 kts 107°
2026-05-07 23:52 42.51874 -71.44086 10011 ft 326 kts 107°
2026-05-07 23:52 42.51271 -71.41182 9829 ft 316 kts 106°
2026-05-07 23:52 42.50676 -71.38322 9480 ft 313 kts 106°
2026-05-07 23:52 42.50096 -71.35535 9115 ft 309 kts 106°
2026-05-07 23:53 42.49528 -71.32712 8743 ft 306 kts 105°
2026-05-07 23:53 42.48986 -71.29964 8378 ft 303 kts 105°
2026-05-07 23:53 42.48443 -71.27215 8025 ft 300 kts 105°
2026-05-07 23:53 42.47904 -71.24501 7660 ft 298 kts 105°
2026-05-07 23:54 42.47366 -71.21806 7298 ft 295 kts 105°
2026-05-07 23:54 42.46831 -71.19132 6967 ft 292 kts 105°
2026-05-07 23:54 42.46301 -71.16495 6606 ft 289 kts 104°
2026-05-07 23:54 42.45951 -71.13836 6346 ft 283 kts 95°
2026-05-07 23:55 42.45732 -71.11249 6241 ft 271 kts 96°
2026-05-07 23:55 42.45509 -71.08759 6132 ft 260 kts 96°
2026-05-07 23:55 42.45291 -71.06367 5955 ft 253 kts 96°
2026-05-07 23:55 42.45075 -71.04011 5629 ft 251 kts 96°
2026-05-07 23:56 42.44831 -71.01702 5266 ft 250 kts 99°
2026-05-07 23:56 42.44518 -70.99348 4895 ft 250 kts 99°
2026-05-07 23:56 42.44236 -70.97069 4535 ft 248 kts 94°
2026-05-07 23:56 42.44270 -70.94929 4174 ft 246 kts 79°
2026-05-07 23:57 42.44628 -70.92683 4020 ft 245 kts 75°
2026-05-07 23:57 42.44990 -70.90422 3994 ft 245 kts 76°
2026-05-07 23:57 42.45338 -70.88164 3993 ft 245 kts 76°
2026-05-07 23:57 42.45683 -70.85897 3994 ft 245 kts 76°
2026-05-07 23:58 42.46027 -70.83638 3993 ft 246 kts 76°
2026-05-07 23:58 42.46373 -70.81363 4001 ft 245 kts 76°
2026-05-07 23:58 42.46705 -70.79180 3997 ft 228 kts 76°
2026-05-07 23:58 42.47015 -70.77128 3886 ft 218 kts 76°
2026-05-07 23:59 42.47315 -70.75125 3612 ft 216 kts 76°
2026-05-07 23:59 42.47604 -70.73207 3536 ft 201 kts 76°
2026-05-07 23:59 42.47759 -70.71392 3400 ft 191 kts 97°
2026-05-07 23:59 42.47187 -70.69889 3298 ft 171 kts 142°
2026-05-08 00:00 42.46204 -70.69238 3110 ft 152 kts 165°
2026-05-08 00:00 42.45201 -70.68915 2910 ft 145 kts 193°
2026-05-08 00:00 42.44348 -70.69514 3007 ft 141 kts 225°
2026-05-08 00:00 42.43600 -70.70345 3000 ft 138 kts 226°
2026-05-08 00:01 42.42867 -70.71165 2988 ft 136 kts 225°
2026-05-08 00:01 42.42128 -70.72003 2998 ft 139 kts 226°
2026-05-08 00:01 42.41391 -70.72831 2996 ft 137 kts 226°
2026-05-08 00:01 42.40719 -70.73698 2992 ft 134 kts 238°
2026-05-08 00:02 42.40286 -70.74797 2995 ft 131 kts 254°
2026-05-08 00:02 42.40032 -70.75978 2984 ft 129 kts 261°
2026-05-08 00:02 42.39830 -70.77166 2994 ft 131 kts 261°
2026-05-08 00:02 42.39619 -70.78358 2974 ft 130 kts 260°
2026-05-08 00:03 42.39408 -70.79557 2878 ft 131 kts 261°
2026-05-08 00:03 42.39198 -70.80742 2721 ft 128 kts 261°
2026-05-08 00:03 42.38989 -70.81917 2555 ft 134 kts 261°
2026-05-08 00:03 42.38755 -70.83283 2358 ft 155 kts 260°
2026-05-08 00:04 42.38501 -70.84705 2143 ft 157 kts 260°
2026-05-08 00:04 42.38248 -70.86145 1916 ft 157 kts 261°
2026-05-08 00:04 42.37995 -70.87582 1713 ft 155 kts 261°
2026-05-08 00:04 42.37748 -70.88978 1511 ft 153 kts 261°
2026-05-08 00:05 42.37515 -70.90282 1301 ft 133 kts 261°
2026-05-08 00:05 42.37307 -70.91467 1130 ft 129 kts 260°
2026-05-08 00:05 42.37102 -70.92637 962 ft 128 kts 260°
2026-05-08 00:05 42.36896 -70.93805 793 ft 128 kts 259°
2026-05-08 00:06 42.36693 -70.94953 634 ft 122 kts 260°
2026-05-08 00:06 42.36500 -70.96056 464 ft 123 kts 259°
2026-05-08 00:06 42.36300 -70.97183 308 ft 129 kts 259°
2026-05-08 00:06 42.36096 -70.98334 121 ft 124 kts 259°
2026-05-08 00:07 42.35900 -70.99446 28 ft 117 kts 259°
2026-05-08 00:07 42.35793 -71.00078 29 ft 24 kts 257°
2026-05-08 00:07 42.35751 -71.00306 26 ft 25 kts 266°
2026-05-08 00:07 42.35771 -71.00532 25 ft 24 kts 277°
2026-05-08 00:08 42.35791 -71.00739 22 ft 16 kts 277°
2026-05-08 00:08 42.35808 -71.00884 22 ft 15 kts 279°
2026-05-08 00:08 42.35821 -71.01020 23 ft 14 kts 275°
2026-05-08 00:08 42.35834 -71.01154 25 ft 14 kts 279°
2026-05-08 00:09 42.35849 -71.01286 27 ft 11 kts 278°
2026-05-08 00:09 42.35850 -71.01290 26 ft 0 kts 278°
2026-05-08 00:09 42.35851 -71.01299 25 ft 5 kts 278°
2026-05-08 00:09 42.35865 -71.01428 28 ft 23 kts 279°
2026-05-08 00:10 42.35901 -71.01605 27 ft 15 kts 313°
2026-05-08 00:10 42.36033 -71.01584 29 ft 27 kts
2026-05-08 00:10 42.36097 -71.01663 26 ft 0 kts 255°
2026-05-08 00:10 42.36105 -71.01630 27 ft 7 kts 256°
2026-05-08 00:11 42.36106 -71.01605 26 ft 0 kts 255°
2026-05-08 00:11 42.36111 -71.01618 25 ft 4 kts 291°
2026-05-08 00:11 42.36129 -71.01666 23 ft 7 kts 290°
2026-05-08 00:11 42.36130 -71.01669 23 ft 0 kts 289°